{"data":{"norad_id":49304,"epoch":"2026-05-25T01:50:38.994144Z","epoch_age_seconds":68288,"freshness":"FRESH","line1":"1 49304U 21090AB  26145.07684021  .00000011  00000+0 -55757-5 0  9994","line2":"2 49304  87.9170 279.0491 0001991  96.7228 263.4132 13.20773555226739","mean_motion":13.20773555,"eccentricity":0.0001991,"inclination_deg":87.917,"raan_deg":279.0491,"arg_perigee_deg":96.7228,"mean_anomaly_deg":263.4132,"bstar":-5.5757e-6,"rev_number":22673,"period_min":109.02701636845,"perigee_km":1180.2615483466,"apogee_km":1183.27190201,"semimajor_km":7559.9037251783,"source":"CELESTRAK","updated_at":"2026-05-25T13:38:22.524805Z"}}